| time (UTC) | temp F | wind direction | speed knots | gust knots | rain 1hr in | rain 24hr in | rain mn in | humidity % | barometer mb |
| 20260503200520 | 53 | 135 | 1.7 | 2.6 | 0.00 | 0.00 | 0.00 | 61 | 1017.9 |
| 20260503195516 | 53 | 122 | 1.7 | 2.6 | 0.00 | 0.00 | 0.00 | 61 | 1017.9 |
| 20260503194533 | 55 | 75 | 0.0 | 0.9 | 0.00 | 0.00 | 0.00 | 58 | 1017.9 |
| 20260503193528 | 55 | 125 | 0.0 | 0.9 | 0.00 | 0.00 | 0.00 | 58 | 1018.1 |
| 20260503192524 | 55 | 130 | 0.0 | 1.7 | 0.00 | 0.00 | 0.00 | 57 | 1018.1 |
| 20260503191520 | 56 | 31 | 0.0 | 0.9 | 0.00 | 0.00 | 0.00 | 56 | 1018.1 |
| 20260503190517 | 56 | 146 | 0.0 | 1.7 | 0.00 | 0.00 | 0.00 | 55 | 1018.1 |
| 20260503185533 | 56 | 165 | 0.0 | 1.7 | 0.00 | 0.00 | 0.00 | 54 | 1018.0 |
| 20260503184531 | 57 | 205 | 0.9 | 1.7 | 0.00 | 0.00 | 0.00 | 54 | 1018.1 |
| 20260503183525 | 57 | 219 | 1.7 | 3.5 | 0.00 | 0.00 | 0.00 | 53 | 1018.1 |
| 20260503182521 | 57 | 204 | 1.7 | 4.3 | 0.00 | 0.00 | 0.00 | 53 | 1018.1 |
| 20260503181518 | 58 | 201 | 2.6 | 4.3 | 0.00 | 0.00 | 0.00 | 53 | 1018.2 |
| 20260503180555 | 58 | 197 | 2.6 | 3.5 | 0.00 | 0.00 | 0.00 | 52 | 1018.2 |
| 20260503175530 | 58 | 200 | 1.7 | 3.5 | 0.00 | 0.00 | 0.00 | 52 | 1018.1 |
| 20260503174527 | 59 | 184 | 2.6 | 4.3 | 0.00 | 0.00 | 0.00 | 51 | 1018.0 |
| 20260503173543 | 60 | 185 | 2.6 | 5.2 | 0.00 | 0.00 | 0.00 | 49 | 1018.1 |
| 20260503172519 | 61 | 187 | 1.7 | 3.5 | 0.00 | 0.00 | 0.00 | 49 | 1018.2 |
| 20260503171536 | 62 | 186 | 3.5 | 5.2 | 0.00 | 0.00 | 0.00 | 47 | 1018.2 |
| 20260503170531 | 62 | 183 | 3.5 | 6.1 | 0.00 | 0.00 | 0.00 | 46 | 1018.3 |
| 20260503150545 | 67 | 99 | 1.7 | 3.5 | 0.00 | 0.00 | 0.00 | 41 | 1019.2 |
| 20260503130517 | 65 | 72 | 2.6 | 6.1 | 0.00 | 0.00 | 0.00 | 38 | 1020.5 |
| 20260503110531 | 63 | 140 | 1.7 | 5.2 | 0.00 | 0.00 | 0.00 | 38 | 1021.9 |
| 20260503081547 | 59 | 197 | 2.6 | 6.1 | 0.00 | 0.00 | 0.00 | 42 | 1023.7 |
| 20260503080523 | 58 | 103 | 2.6 | 4.3 | 0.00 | 0.00 | 0.00 | 42 | 1023.8 |
| 20260503072528 | 56 | 186 | 2.6 | 4.3 | 0.00 | 0.00 | 0.00 | 48 | 1024.0 |
| 20260503071529 | 55 | 145 | 1.7 | 5.2 | 0.00 | 0.00 | 0.00 | 52 | 1024.1 |
| 20260503070519 | 54 | 168 | 1.7 | 3.5 | 0.00 | 0.00 | 0.00 | 52 | 1024.1 |
| 20260503054530 | 48 | 85 | 0.9 | 2.6 | 0.00 | 0.00 | 0.00 | 66 | 1024.0 |
| 20260503053526 | 46 | 76 | 1.7 | 1.7 | 0.00 | 0.00 | 0.00 | 71 | 1024.0 |
| 20260503052522 | 43 | 93 | 1.7 | 2.6 | 0.00 | 0.00 | 0.00 | 75 | 1024.0 |
| 20260503051517 | 44 | 72 | 2.6 | 3.5 | 0.00 | 0.00 | 0.00 | 75 | 1024.0 |
| 20260503050534 | 43 | 71 | 2.6 | 3.5 | 0.00 | 0.00 | 0.00 | 76 | 1024.0 |
| 20260503045530 | 41 | 67 | 2.6 | 4.3 | 0.00 | 0.00 | 0.00 | 79 | 1023.9 |
| 20260503044527 | 41 | 55 | 2.6 | 3.5 | 0.00 | 0.00 | 0.00 | 79 | 1023.8 |
| 20260503043523 | 40 | 46 | 2.6 | 3.5 | 0.00 | 0.01 | 0.00 | 78 | 1023.7 |
| 20260503042520 | 43 | 81 | 1.7 | 2.6 | 0.00 | 0.01 | 0.00 | 75 | 1023.7 |
| 20260503041534 | 41 | 123 | 1.7 | 2.6 | 0.00 | 0.01 | 0.00 | 76 | 1023.6 |
| 20260503040550 | 40 | 116 | 1.7 | 2.6 | 0.00 | 0.01 | 0.00 | 80 | 1023.6 |
| 20260503035547 | 38 | 97 | 1.7 | 2.6 | 0.00 | 0.01 | 0.00 | 84 | 1023.7 |
| 20260503034523 | 36 | 88 | 1.7 | 2.6 | 0.00 | 0.01 | 0.00 | 87 | 1023.4 |
| 20260503033600 | 35 | 100 | 1.7 | 1.7 | 0.00 | 0.01 | 0.00 | 89 | 1023.4 |
| 20260503032535 | 34 | 107 | 1.7 | 2.6 | 0.00 | 0.01 | 0.00 | 89 | 1023.5 |
| 20260503031531 | 34 | 138 | 1.7 | 2.6 | 0.00 | 0.01 | 0.00 | 88 | 1023.5 |
| 20260503030527 | 34 | 131 | 1.7 | 2.6 | 0.00 | 0.01 | 0.00 | 90 | 1023.4 |
| 20260503025524 | 34 | 132 | 1.7 | 2.6 | 0.00 | 0.01 | 0.00 | 90 | 1023.5 |
| 20260503024520 | 34 | 123 | 0.9 | 1.7 | 0.00 | 0.01 | 0.00 | 89 | 1023.4 |
| 20260503023516 | 34 | 0.0 | 0.9 | 0.00 | 0.01 | 0.00 | 89 | 1023.4 | |
| 20260503022531 | 34 | 138 | 0.0 | 1.7 | 0.00 | 0.01 | 0.00 | 88 | 1023.5 |
| 20260503021547 | 35 | 73 | 0.0 | 1.7 | 0.00 | 0.01 | 0.00 | 87 | 1023.5 |
| 20260503020524 | 35 | 133 | 1.7 | 2.6 | 0.00 | 0.01 | 0.00 | 87 | 1023.3 |
| 20260503015520 | 35 | 87 | 0.9 | 1.7 | 0.00 | 0.01 | 0.00 | 86 | 1023.3 |
| 20260503014517 | 35 | 126 | 1.7 | 1.7 | 0.00 | 0.01 | 0.00 | 86 | 1023.2 |
| 20260503013532 | 36 | 123 | 1.7 | 2.6 | 0.00 | 0.01 | 0.00 | 85 | 1023.3 |
| 20260503012529 | 36 | 122 | 0.9 | 1.7 | 0.00 | 0.01 | 0.00 | 85 | 1023.2 |
| 20260503011525 | 36 | 107 | 0.9 | 1.7 | 0.00 | 0.01 | 0.00 | 86 | 1023.3 |
| 20260503010522 | 36 | 93 | 0.9 | 1.7 | 0.00 | 0.01 | 0.00 | 85 | 1023.3 |
| 20260503005517 | 36 | 135 | 0.9 | 2.6 | 0.00 | 0.01 | 0.00 | 85 | 1023.2 |
| 20260503004553 | 37 | 119 | 1.7 | 1.7 | 0.00 | 0.01 | 0.00 | 84 | 1023.3 |
| 20260503003528 | 36 | 104 | 1.7 | 1.7 | 0.00 | 0.01 | 0.00 | 86 | 1023.3 |
| 20260503002544 | 36 | 131 | 1.7 | 2.6 | 0.00 | 0.01 | 0.00 | 86 | 1023.3 |
| 20260503001541 | 36 | 109 | 0.0 | 1.7 | 0.00 | 0.01 | 0.00 | 86 | 1023.4 |
| 20260503000522 | 36 | 125 | 0.9 | 1.7 | 0.00 | 0.01 | 0.00 | 85 | 1023.5 |
| 20260502235534 | 37 | 86 | 0.9 | 1.7 | 0.00 | 0.01 | 0.00 | 83 | 1023.5 |
| 20260502234529 | 38 | 106 | 0.0 | 1.7 | 0.00 | 0.01 | 0.00 | 81 | 1023.4 |
| 20260502233525 | 38 | 134 | 0.0 | 1.7 | 0.00 | 0.01 | 0.00 | 82 | 1023.6 |
| 20260502232521 | 38 | 141 | 0.0 | 0.9 | 0.00 | 0.01 | 0.00 | 83 | 1023.7 |
| 20260502231518 | 39 | 100 | 0.0 | 0.9 | 0.00 | 0.01 | 0.00 | 82 | 1023.8 |
| 20260502230534 | 39 | 103 | 0.0 | 1.7 | 0.00 | 0.01 | 0.00 | 82 | 1023.8 |
| 20260502225551 | 38 | 143 | 1.7 | 1.7 | 0.00 | 0.01 | 0.00 | 82 | 1024.0 |
| 20260502224526 | 38 | 130 | 0.0 | 1.7 | 0.00 | 0.01 | 0.00 | 83 | 1024.0 |
| 20260502223602 | 38 | 167 | 0.0 | 0.9 | 0.00 | 0.01 | 0.00 | 82 | 1024.0 |
| 20260502222519 | 39 | 103 | 0.9 | 1.7 | 0.00 | 0.01 | 0.00 | 80 | 1024.0 |
| 20260502221535 | 40 | 115 | 0.9 | 1.7 | 0.00 | 0.01 | 0.00 | 78 | 1024.0 |
| 20260502220532 | 40 | 111 | 0.9 | 1.7 | 0.00 | 0.01 | 0.00 | 78 | 1024.0 |
| 20260502215528 | 40 | 104 | 0.9 | 1.7 | 0.00 | 0.01 | 0.00 | 77 | 1024.2 |
| 20260502214524 | 41 | 123 | 0.9 | 1.7 | 0.00 | 0.01 | 0.00 | 77 | 1024.2 |
| 20260502213519 | 41 | 131 | 0.9 | 1.7 | 0.00 | 0.01 | 0.00 | 77 | 1024.2 |
| 20260502212516 | 41 | 0.0 | 0.9 | 0.00 | 0.01 | 0.00 | 75 | 1024.3 | |
| 20260502211533 | 41 | 120 | 0.0 | 0.9 | 0.00 | 0.01 | 0.00 | 76 | 1024.3 |
| 20260502210529 | 41 | 123 | 0.9 | 1.7 | 0.00 | 0.01 | 0.00 | 77 | 1024.2 |
| 20260502205526 | 41 | 129 | 0.0 | 1.7 | 0.00 | 0.01 | 0.01 | 76 | 1024.3 |
| 20260502204521 | 42 | 132 | 0.9 | 2.6 | 0.00 | 0.01 | 0.01 | 75 | 1024.3 |
| 20260502203537 | 42 | 123 | 0.9 | 1.7 | 0.00 | 0.01 | 0.01 | 75 | 1024.2 |
| 20260502202533 | 43 | 104 | 1.7 | 1.7 | 0.00 | 0.01 | 0.01 | 73 | 1024.2 |
| 20260502201530 | 43 | 95 | 0.0 | 0.9 | 0.00 | 0.01 | 0.01 | 72 | 1024.1 |